Time,TemperatureF,DewpointF,PressureIn,WindDirection,WindDirectionDegrees,WindSpeedMPH,WindSpeedGustMPH,Humidity,HourlyPrecipIn,Conditions,Clouds,dailyrainin,SoftwareType,DateUTC
2013-04-29 00:03:00,49.0,48.0,30.05,ESE,123,2.0,5.0,97,0.00,,,0.01,,2013-04-29 04:03:00,
2013-04-29 00:13:00,49.0,48.0,30.05,ESE,123,2.0,5.0,97,0.00,,,0.01,,2013-04-29 04:13:00,
2013-04-29 00:23:00,49.0,48.0,30.05,South,173,1.0,7.0,97,0.00,,,0.01,,2013-04-29 04:23:00,
2013-04-29 00:33:00,49.0,48.0,30.06,ESE,111,2.0,7.0,97,0.00,,,0.01,,2013-04-29 04:33:00,
2013-04-29 00:43:00,49.0,48.0,30.06,ESE,111,2.0,7.0,97,0.00,,,0.01,,2013-04-29 04:43:00,
2013-04-29 00:52:00,49.0,48.0,30.06,SE,124,1.0,5.0,98,0.00,,,0.01,,2013-04-29 04:52:00,
2013-04-29 01:02:00,49.0,48.0,30.05,SSE,163,0.0,4.0,98,0.00,,,0.01,,2013-04-29 05:02:00,
2013-04-29 01:12:00,49.0,48.0,30.05,SSE,163,0.0,4.0,98,0.00,,,0.01,,2013-04-29 05:12:00,
2013-04-29 01:22:00,49.0,48.0,30.05,South,171,0.0,5.0,98,0.00,,,0.01,,2013-04-29 05:22:00,
2013-04-29 01:32:00,49.0,48.0,30.05,ESE,121,1.0,5.0,98,0.00,,,0.01,,2013-04-29 05:32:00,
2013-04-29 01:42:00,49.0,48.0,30.05,ESE,121,1.0,5.0,98,0.00,,,0.01,,2013-04-29 05:42:00,
2013-04-29 01:52:00,49.0,48.0,30.05,East,86,1.0,4.0,98,0.00,,,0.01,,2013-04-29 05:52:00,
2013-04-29 02:02:00,49.0,48.0,30.04,East,86,1.0,3.0,98,0.00,,,0.01,,2013-04-29 06:02:00,
2013-04-29 02:12:00,49.0,48.0,30.04,East,86,1.0,3.0,98,0.00,,,0.01,,2013-04-29 06:12:00,
2013-04-29 02:22:00,49.0,48.0,30.04,ESE,103,1.0,4.0,98,0.00,,,0.01,,2013-04-29 06:22:00,
2013-04-29 02:32:00,49.0,48.0,30.04,SE,136,0.0,1.0,98,0.00,,,0.01,,2013-04-29 06:32:00,
2013-04-29 02:42:00,49.0,48.0,30.04,SE,136,0.0,1.0,98,0.00,,,0.01,,2013-04-29 06:42:00,
2013-04-29 02:52:00,48.0,47.0,30.04,East,84,1.0,2.0,98,0.00,,,0.01,,2013-04-29 06:52:00,
2013-04-29 03:02:00,48.0,47.0,30.03,East,92,2.0,5.0,98,0.00,,,0.01,,2013-04-29 07:02:00,
2013-04-29 03:11:00,48.0,47.0,30.03,East,92,2.0,5.0,98,0.00,,,0.01,,2013-04-29 07:11:00,
2013-04-29 03:22:00,48.0,47.0,30.03,NE,43,2.0,5.0,98,0.00,,,0.01,,2013-04-29 07:22:00,
2013-04-29 03:32:00,48.0,47.0,30.02,East,95,1.0,5.0,98,0.00,,,0.01,,2013-04-29 07:32:00,
2013-04-29 03:42:00,48.0,47.0,30.02,East,95,1.0,5.0,98,0.00,,,0.01,,2013-04-29 07:42:00,
2013-04-29 03:52:00,48.0,47.0,30.01,East,79,2.0,5.0,98,0.00,,,0.01,,2013-04-29 07:52:00,
2013-04-29 04:03:00,48.0,47.0,30.01,East,80,2.0,7.0,98,0.00,,,0.01,,2013-04-29 08:03:00,
2013-04-29 04:11:00,48.0,47.0,30.01,East,80,2.0,7.0,98,0.00,,,0.01,,2013-04-29 08:11:00,
2013-04-29 04:22:00,48.0,47.0,30.01,ESE,114,1.0,6.0,98,0.00,,,0.01,,2013-04-29 08:22:00,
2013-04-29 04:32:00,48.0,47.0,30.01,East,88,1.0,5.0,98,0.00,,,0.01,,2013-04-29 08:32:00,
2013-04-29 04:42:00,48.0,47.0,30.01,East,88,1.0,5.0,98,0.00,,,0.01,,2013-04-29 08:42:00,
2013-04-29 04:51:00,48.0,47.0,30.00,East,86,4.0,8.0,98,0.00,,,0.01,,2013-04-29 08:51:00,
2013-04-29 05:01:00,48.0,47.0,30.00,ENE,76,1.0,4.0,98,0.00,,,0.01,,2013-04-29 09:01:00,
2013-04-29 05:12:00,48.0,47.0,30.00,ENE,76,1.0,4.0,98,0.00,,,0.01,,2013-04-29 09:12:00,
2013-04-29 05:21:00,48.0,47.0,30.00,ESE,111,2.0,8.0,98,0.00,,,0.01,,2013-04-29 09:21:00,
2013-04-29 05:33:00,48.0,47.0,30.00,East,81,2.0,6.0,98,0.00,,,0.01,,2013-04-29 09:33:00,
2013-04-29 05:42:00,48.0,47.0,30.00,East,81,2.0,6.0,98,0.00,,,0.01,,2013-04-29 09:42:00,
2013-04-29 05:53:00,48.0,47.0,30.00,ESE,109,1.0,6.0,98,0.00,,,0.01,,2013-04-29 09:53:00,
2013-04-29 06:02:00,48.0,47.0,30.00,ESE,115,0.0,5.0,98,0.00,,,0.01,,2013-04-29 10:02:00,
2013-04-29 06:12:00,48.0,47.0,30.00,ESE,115,0.0,5.0,98,0.00,,,0.01,,2013-04-29 10:12:00,
2013-04-29 06:23:00,48.0,47.0,30.01,ENE,69,2.0,4.0,98,0.00,,,0.01,,2013-04-29 10:23:00,
2013-04-29 06:32:00,48.0,47.0,30.01,ENE,69,0.0,5.0,98,0.00,,,0.01,,2013-04-29 10:32:00,
2013-04-29 06:42:00,48.0,47.0,30.01,ENE,69,0.0,5.0,98,0.00,,,0.01,,2013-04-29 10:42:00,
2013-04-29 06:52:00,48.0,47.0,30.02,ENE,66,1.0,3.0,98,0.00,,,0.01,,2013-04-29 10:52:00,
2013-04-29 07:03:00,48.0,47.0,30.02,ENE,67,2.0,7.0,98,0.00,,,0.01,,2013-04-29 11:03:00,
2013-04-29 07:12:00,48.0,47.0,30.02,ENE,67,2.0,7.0,98,0.00,,,0.01,,2013-04-29 11:12:00,
2013-04-29 07:22:00,48.0,47.0,30.03,ENE,59,2.0,5.0,98,0.00,,,0.01,,2013-04-29 11:22:00,
2013-04-29 07:32:00,48.0,48.0,30.03,ENE,59,1.0,4.0,99,0.00,,,0.01,,2013-04-29 11:32:00,
2013-04-29 07:42:00,48.0,48.0,30.03,ENE,59,1.0,4.0,99,0.00,,,0.01,,2013-04-29 11:42:00,
2013-04-29 07:52:00,48.0,48.0,30.03,East,92,0.0,1.0,99,0.00,,,0.01,,2013-04-29 11:52:00,
2013-04-29 08:01:00,48.0,48.0,30.02,ESE,104,1.0,3.0,99,0.00,,,0.01,,2013-04-29 12:01:00,
2013-04-29 08:12:00,48.0,48.0,30.02,ESE,104,1.0,3.0,99,0.00,,,0.01,,2013-04-29 12:12:00,
2013-04-29 08:22:00,48.0,48.0,30.03,East,87,1.0,4.0,99,0.00,,,0.01,,2013-04-29 12:22:00,
2013-04-29 08:32:00,48.0,48.0,30.03,East,82,0.0,5.0,99,0.00,,,0.01,,2013-04-29 12:32:00,
2013-04-29 08:42:00,48.0,48.0,30.03,East,82,0.0,5.0,99,0.00,,,0.01,,2013-04-29 12:42:00,
2013-04-29 08:52:00,48.0,48.0,30.03,ENE,69,1.0,4.0,99,0.00,,,0.01,,2013-04-29 12:52:00,
2013-04-29 09:01:00,48.0,48.0,30.04,ENE,66,1.0,3.0,99,0.00,,,0.01,,2013-04-29 13:01:00,
2013-04-29 09:11:00,48.0,48.0,30.04,ENE,66,1.0,3.0,99,0.00,,,0.01,,2013-04-29 13:11:00,
2013-04-29 09:21:00,49.0,49.0,30.04,ESE,103,1.0,3.0,99,0.00,,,0.01,,2013-04-29 13:21:00,
2013-04-29 09:32:00,49.0,49.0,30.04,ESE,117,1.0,3.0,99,0.00,,,0.01,,2013-04-29 13:32:00,
2013-04-29 09:42:00,49.0,49.0,30.04,ESE,117,1.0,3.0,99,0.00,,,0.01,,2013-04-29 13:42:00,
2013-04-29 09:52:00,49.0,49.0,30.04,ESE,109,1.0,5.0,99,0.00,,,0.01,,2013-04-29 13:52:00,
2013-04-29 10:02:00,49.0,49.0,30.04,ENE,67,1.0,3.0,99,0.00,,,0.01,,2013-04-29 14:02:00,
2013-04-29 10:12:00,49.0,49.0,30.04,ENE,67,1.0,3.0,99,0.00,,,0.01,,2013-04-29 14:12:00,
2013-04-29 10:21:00,50.0,50.0,30.04,ENE,74,0.0,2.0,99,0.00,,,0.01,,2013-04-29 14:21:00,
2013-04-29 10:32:00,50.0,50.0,30.04,ENE,74,0.0,2.0,99,0.00,,,0.01,,2013-04-29 14:32:00,
2013-04-29 10:42:00,50.0,50.0,30.04,ENE,74,0.0,2.0,99,0.00,,,0.01,,2013-04-29 14:42:00,
2013-04-29 10:52:00,50.0,50.0,30.04,ENE,78,0.0,2.0,99,0.00,,,0.01,,2013-04-29 14:52:00,
2013-04-29 11:01:00,50.0,50.0,30.04,ENE,63,2.0,4.0,99,0.00,,,0.01,,2013-04-29 15:01:00,
2013-04-29 11:12:00,50.0,50.0,30.04,ENE,63,2.0,4.0,99,0.00,,,0.01,,2013-04-29 15:12:00,
2013-04-29 11:22:00,51.0,51.0,30.04,ENE,61,0.0,5.0,99,0.00,,,0.01,,2013-04-29 15:22:00,
2013-04-29 11:33:00,51.0,51.0,30.04,ENE,62,0.0,2.0,99,0.00,,,0.01,,2013-04-29 15:33:00,
2013-04-29 11:42:00,51.0,51.0,30.04,ENE,62,0.0,2.0,99,0.00,,,0.01,,2013-04-29 15:42:00,
2013-04-29 11:53:00,52.0,52.0,30.04,ENE,61,0.0,2.0,99,0.00,,,0.01,,2013-04-29 15:53:00,
2013-04-29 12:03:00,53.0,53.0,30.04,ENE,62,0.0,1.0,99,0.00,,,0.01,,2013-04-29 16:03:00,
2013-04-29 12:12:00,53.0,53.0,30.04,ENE,62,0.0,1.0,99,0.00,,,0.01,,2013-04-29 16:12:00,
2013-04-29 12:23:00,54.0,53.0,30.03,West,265,1.0,4.0,97,0.00,,,0.01,,2013-04-29 16:23:00,
2013-04-29 12:33:00,55.0,54.0,30.03,West,265,0.0,3.0,96,0.00,,,0.01,,2013-04-29 16:33:00,
2013-04-29 12:42:00,55.0,54.0,30.03,West,265,0.0,3.0,96,0.00,,,0.01,,2013-04-29 16:42:00,
2013-04-29 12:52:00,57.0,54.0,30.03,SSW,199,2.0,6.0,89,0.00,,,0.01,,2013-04-29 16:52:00,
2013-04-29 13:02:00,59.0,54.0,30.02,SSW,207,3.0,6.0,83,0.00,,,0.01,,2013-04-29 17:02:00,
2013-04-29 13:12:00,59.0,54.0,30.02,SSW,207,3.0,6.0,83,0.00,,,0.01,,2013-04-29 17:12:00,
2013-04-29 13:22:00,60.0,54.0,30.01,SSW,211,2.0,7.0,80,0.00,,,0.01,,2013-04-29 17:22:00,
2013-04-29 13:32:00,62.0,54.0,30.01,WSW,244,2.0,6.0,76,0.00,,,0.01,,2013-04-29 17:32:00,
2013-04-29 13:42:00,62.0,54.0,30.01,WSW,244,2.0,6.0,76,0.00,,,0.01,,2013-04-29 17:42:00,
2013-04-29 13:52:00,63.0,55.0,30.00,SSW,198,4.0,7.0,75,0.00,,,0.01,,2013-04-29 17:52:00,
2013-04-29 14:01:00,63.0,53.0,30.00,WSW,246,3.0,8.0,70,0.00,,,0.01,,2013-04-29 18:01:00,
2013-04-29 14:13:00,63.0,53.0,30.00,WSW,246,3.0,8.0,70,0.00,,,0.01,,2013-04-29 18:13:00,
2013-04-29 14:22:00,64.0,54.0,29.99,SW,226,2.0,8.0,70,0.00,,,0.01,,2013-04-29 18:22:00,
2013-04-29 14:32:00,65.0,53.0,29.99,SW,229,4.0,11.0,65,0.00,,,0.01,,2013-04-29 18:32:00,
2013-04-29 14:42:00,65.0,53.0,29.99,SW,229,4.0,11.0,65,0.00,,,0.01,,2013-04-29 18:42:00,
2013-04-29 14:52:00,65.0,53.0,29.98,WSW,246,5.0,13.0,66,0.00,,,0.01,,2013-04-29 18:52:00,
2013-04-29 15:01:00,64.0,53.0,29.98,West,265,6.0,11.0,68,0.00,,,0.01,,2013-04-29 19:01:00,
2013-04-29 15:12:00,64.0,53.0,29.98,West,265,6.0,11.0,68,0.00,,,0.01,,2013-04-29 19:12:00,
2013-04-29 15:22:00,64.0,54.0,29.98,West,267,4.0,10.0,70,0.00,,,0.01,,2013-04-29 19:22:00,
2013-04-29 15:32:00,64.0,53.0,29.98,West,277,6.0,11.0,68,0.00,,,0.01,,2013-04-29 19:32:00,
2013-04-29 15:42:00,64.0,53.0,29.98,West,277,6.0,11.0,68,0.00,,,0.01,,2013-04-29 19:42:00,
2013-04-29 15:52:00,63.0,53.0,29.97,WNW,302,2.0,7.0,70,0.00,,,0.01,,2013-04-29 19:52:00,
2013-04-29 16:02:00,65.0,55.0,29.96,WNW,298,1.0,11.0,70,0.00,,,0.01,,2013-04-29 20:02:00,
2013-04-29 16:12:00,65.0,55.0,29.96,WNW,298,1.0,11.0,70,0.00,,,0.01,,2013-04-29 20:12:00,
2013-04-29 16:22:00,65.0,53.0,29.96,West,273,3.0,6.0,66,0.00,,,0.01,,2013-04-29 20:22:00,
2013-04-29 16:32:00,65.0,52.0,29.95,West,269,5.0,9.0,63,0.00,,,0.00,,2013-04-29 20:32:00,
2013-04-29 16:42:00,65.0,52.0,29.95,West,269,5.0,9.0,63,0.00,,,0.00,,2013-04-29 20:42:00,
2013-04-29 16:52:00,65.0,53.0,29.95,West,262,4.0,9.0,65,0.00,,,0.00,,2013-04-29 20:52:00,
2013-04-29 17:01:00,64.0,53.0,29.95,WNW,291,4.0,7.0,67,0.00,,,0.00,,2013-04-29 21:01:00,
2013-04-29 17:11:00,64.0,53.0,29.95,WNW,291,4.0,7.0,67,0.00,,,0.00,,2013-04-29 21:11:00,
2013-04-29 17:22:00,65.0,54.0,29.94,NW,304,2.0,6.0,68,0.00,,,0.00,,2013-04-29 21:22:00,
2013-04-29 17:33:00,65.0,54.0,29.95,WNW,288,2.0,6.0,67,0.00,,,0.00,,2013-04-29 21:33:00,
2013-04-29 17:43:00,65.0,54.0,29.95,WNW,288,2.0,6.0,67,0.00,,,0.00,,2013-04-29 21:43:00,
2013-04-29 17:53:00,65.0,55.0,29.94,WSW,242,0.0,3.0,69,0.00,,,0.00,,2013-04-29 21:53:00,
2013-04-29 18:02:00,65.0,54.0,29.95,NNW,329,0.0,5.0,68,0.00,,,0.00,,2013-04-29 22:02:00,
2013-04-29 18:13:00,65.0,54.0,29.95,NNW,329,0.0,5.0,68,0.00,,,0.00,,2013-04-29 22:13:00,
2013-04-29 18:23:00,65.0,54.0,29.95,North,5,0.0,4.0,67,0.00,,,0.00,,2013-04-29 22:23:00,
2013-04-29 18:32:00,65.0,54.0,29.95,North,5,0.0,4.0,67,0.00,,,0.00,,2013-04-29 22:32:00,
2013-04-29 18:42:00,65.0,54.0,29.95,North,5,0.0,4.0,67,0.00,,,0.00,,2013-04-29 22:42:00,
2013-04-29 18:52:00,65.0,52.0,29.95,West,269,2.0,6.0,63,0.00,,,0.00,,2013-04-29 22:52:00,
2013-04-29 19:02:00,64.0,52.0,29.96,South,184,0.0,3.0,65,0.00,,,0.00,,2013-04-29 23:02:00,
2013-04-29 19:12:00,64.0,52.0,29.96,South,184,0.0,3.0,65,0.00,,,0.00,,2013-04-29 23:12:00,
2013-04-29 19:22:00,64.0,56.0,29.96,South,169,2.0,7.0,74,0.00,,,0.00,,2013-04-29 23:22:00,
2013-04-29 19:32:00,62.0,55.0,29.96,SE,125,3.0,7.0,77,0.00,,,0.00,,2013-04-29 23:32:00,
2013-04-29 19:42:00,62.0,55.0,29.96,SE,125,3.0,7.0,77,0.00,,,0.00,,2013-04-29 23:42:00,
2013-04-29 19:52:00,61.0,55.0,29.96,SSE,162,1.0,5.0,80,0.00,,,0.00,,2013-04-29 23:52:00,
2013-04-29 20:01:00,61.0,55.0,29.97,ESE,119,0.0,3.0,82,0.00,,,0.00,,2013-04-30 00:01:00,
2013-04-29 20:11:00,61.0,55.0,29.97,ESE,119,0.0,3.0,82,0.00,,,0.00,,2013-04-30 00:11:00,
2013-04-29 20:21:00,60.0,54.0,29.98,ESE,103,1.0,5.0,82,0.00,,,0.00,,2013-04-30 00:21:00,
2013-04-29 20:32:00,60.0,54.0,29.98,ESE,103,1.0,5.0,82,0.00,,,0.00,,2013-04-30 00:32:00,
2013-04-29 20:42:00,60.0,54.0,29.98,ESE,103,1.0,5.0,82,0.00,,,0.00,,2013-04-30 00:42:00,
2013-04-29 20:51:00,59.0,54.0,29.99,ESE,110,1.0,4.0,85,0.00,,,0.00,,2013-04-30 00:51:00,
2013-04-29 21:02:00,59.0,55.0,29.99,ENE,72,0.0,3.0,86,0.00,,,0.00,,2013-04-30 01:02:00,
2013-04-29 21:11:00,59.0,55.0,29.99,ENE,72,0.0,3.0,86,0.00,,,0.00,,2013-04-30 01:11:00,
2013-04-29 21:22:00,58.0,54.0,29.99,ESE,119,1.0,4.0,87,0.00,,,0.00,,2013-04-30 01:22:00,
2013-04-29 21:32:00,58.0,54.0,29.99,ESE,119,1.0,4.0,87,0.00,,,0.00,,2013-04-30 01:32:00,
2013-04-29 21:42:00,58.0,54.0,29.99,ESE,119,1.0,4.0,87,0.00,,,0.00,,2013-04-30 01:42:00,
2013-04-29 21:51:00,58.0,55.0,30.01,SE,130,0.0,0.0,89,0.00,,,0.00,,2013-04-30 01:51:00,
2013-04-29 22:01:00,58.0,55.0,30.01,SE,130,0.0,0.0,89,0.00,,,0.00,,2013-04-30 02:01:00,
2013-04-29 22:11:00,58.0,55.0,30.01,SE,130,0.0,0.0,89,0.00,,,0.00,,2013-04-30 02:11:00,
2013-04-29 22:21:00,57.0,54.0,30.01,SE,130,0.0,2.0,91,0.00,,,0.00,,2013-04-30 02:21:00,
2013-04-29 22:31:00,57.0,54.0,30.01,SE,130,0.0,2.0,91,0.00,,,0.00,,2013-04-30 02:31:00,
2013-04-29 22:42:00,57.0,54.0,30.01,SE,130,0.0,2.0,91,0.00,,,0.00,,2013-04-30 02:42:00,
2013-04-29 22:52:00,57.0,55.0,30.01,SE,130,0.0,1.0,92,0.00,,,0.00,,2013-04-30 02:52:00,
2013-04-29 23:01:00,56.0,54.0,30.01,SE,130,0.0,1.0,92,0.00,,,0.00,,2013-04-30 03:01:00,
2013-04-29 23:11:00,56.0,54.0,30.01,SE,130,0.0,1.0,92,0.00,,,0.00,,2013-04-30 03:11:00,
2013-04-29 23:21:00,56.0,54.0,30.01,SE,130,0.0,1.0,93,0.00,,,0.00,,2013-04-30 03:21:00,
2013-04-29 23:33:00,56.0,54.0,30.01,SE,130,0.0,1.0,93,0.00,,,0.00,,2013-04-30 03:33:00,
2013-04-29 23:43:00,56.0,54.0,30.01,SE,130,0.0,1.0,93,0.00,,,0.00,,2013-04-30 03:43:00,
2013-04-29 23:52:00,56.0,54.0,30.01,SE,126,0.0,0.0,93,0.00,,,0.00,,2013-04-30 03:52:00,